Portada
METAR-TAF:

METAR-TAF

Aeroports :

Hallock Municipal Airport

Hallock, Minnesota, Estats Units d'Amèrica

latitud: 48-45-10N, longitud: 096-56-35W, altitud: 250 m

Observació

L'informe es va fer fa 19 minuts, a les 06:16 UTC
Vent 8 kt del Nord
Temperatura -8°C
Humitat 92%
Pressió 1025 hPa
Visibilitat: 16.1 km
Cel ennuvolat a una alçada de 3600 ft

METAR: KHCO 250616Z AUTO 35008KT 10SM BKN036 M08/M09 A3026 RMK AO2

Hora: 00:35 (06:35 UTC)


TAF: manca

Observacions i pronòstics meteorològics de més de 4000 aeroports (METAR i TAF).

Les estacions disponibles són els punts grocs i vermells al mapa.

Posi el ratolí al punt desitjat per veure el nom de l'estació.

Feu clic per veure les observacions i els pronòstics meteorològics.

Per canviar el mapa: feu clic els botons verds amb una creu de color negre per apropar; al botó verd amb un guió per allunyar la imatge; o en les fletxes verdes per a mapes adjacents.


METAR-TAF: